[[{"header":{"parameterUnit":"m.s-1","parameterCategory":1,"la1":30.2991,"la2":30.254,"lo1":-89.0895,"lo2":-89.0444,"dy":0.0017,"dx":0.0017,"nx":28,"ny":28,"refTime":"2026-02-15T03:00:00:Z","depth":0,"parameterNumber":2,"parameterNumberName":"U-component_of_WINDS"},"data":[0,0,0,0,0,0,0,0,0,0,0,0,0,0,0,0,0,0,0,0,0,0,0,0,0,0,0,0,0,0,0,0,0,0,0,0,0,0,0,0,0,0,0,0,0,0,0,0,0,0,0,0,0,0,0,0,0,0,-1.5584,-1.5585,0,-1.5629,-1.5629,-1.563,-1.5634,-1.5634,-1.5633,-1.5633,-1.5674,-1.5676,-1.5677,0,0,0,0,0,0,0,0,0,0,0,0,0,-1.5501,-1.5503,-1.5584,-1.5585,-1.5586,-1.5629,-1.5629,-1.563,-1.5634,-1.5633,-1.5633,-1.5632,-1.5674,-1.5676,-1.5678,0,0,0,0,0,0,0,0,0,0,0,0,0,-1.5541,-1.5503,-1.5584,-1.5593,-1.5594,-1.5629,-1.5629,-1.563,-1.5634,-1.5633,-1.5633,-1.5632,-1.5673,-1.5676,-1.5678,-1.5706,0,0,-1.5685,-1.5686,0,0,0,0,0,0,0,0,-1.5538,-1.5544,-1.5591,-1.5592,-1.5594,-1.5625,-1.5615,-1.5655,-1.5634,-1.5619,-1.5633,-1.5632,-1.5658,-1.5662,-1.5672,-1.5708,-1.571,-1.5685,-1.5686,-1.5687,-1.5688,0,0,0,0,0,0,0,-1.5536,-1.5542,-1.5602,-1.5592,-1.5593,-1.5594,-1.5599,-1.5623,-1.5642,-1.562,-1.5621,-1.5626,-1.5659,-1.5669,-1.5673,-1.571,-1.5685,-1.5687,-1.5688,-1.5689,-1.5774,-1.5775,0,0,0,0,0,0,-1.5532,-1.5539,-1.56,-1.5603,-1.5564,-1.5596,-1.5601,-1.5616,-1.5642,-1.5645,-1.5626,-1.5626,-1.5666,-1.567,-1.5674,-1.571,-1.5687,-1.569,-1.5691,-1.5773,-1.5774,-1.5775,0,0,0,0,0,0,-1.553,-1.5537,-1.5599,-1.5572,-1.5579,-1.5598,-1.5614,-1.5617,-1.5627,-1.5646,-1.5649,-1.5634,-1.5665,-1.5671,-1.5699,-1.5711,-1.5691,-1.5693,-1.5772,-1.5773,-1.5774,-1.5781,0,0,0,0,0,0,-1.5527,-1.5536,-1.5547,-1.5572,-1.5581,-1.5623,-1.5615,-1.5618,-1.5632,-1.5632,-1.5654,-1.5657,-1.5665,-1.5695,-1.5701,-1.5714,-1.5695,-1.5771,-1.5772,-1.5774,-1.578,-1.5783,-1.5785,0,0,0,0,0,-1.5524,-1.5546,-1.5548,-1.5555,-1.5595,-1.5624,-1.5629,-1.5639,-1.5633,-1.5644,-1.5657,-1.5656,-1.5709,-1.5698,-1.5704,-1.5719,-1.577,-1.5772,-1.5774,-1.5779,-1.5782,-1.5785,0,0,0,0,0,0,-1.5521,-1.5549,-1.5552,-1.5582,-1.5601,-1.5624,-1.5639,-1.5642,-1.5661,-1.566,-1.567,-1.5675,-1.5703,-1.5714,-1.5701,-1.5748,-1.5739,-1.5742,-1.574,-1.5744,-1.5746,-1.5743,-1.5696,0,0,0,0,0,-1.5524,-1.5546,-1.5569,-1.5594,-1.5603,-1.562,-1.5632,-1.5639,-1.5658,-1.5665,-1.568,-1.5697,-1.5718,-1.5731,-1.5751,-1.5782,-1.5787,-1.5795,-1.5797,-1.5799,-1.5802,-1.582,-1.5824,-1.5781,-1.5781,-1.5781,0,0,-1.553,-1.5548,-1.5561,-1.5594,-1.5609,-1.5631,-1.5626,-1.5649,-1.5665,-1.5668,-1.5696,-1.5708,-1.5728,-1.5758,-1.5771,-1.5767,-1.5815,-1.5801,-1.5803,-1.5805,-1.5823,-1.5827,-1.583,-1.5782,-1.5782,-1.5782,0,0,-1.5552,-1.5568,-1.5591,-1.5607,-1.5631,-1.5642,-1.5648,-1.5672,-1.568,-1.5709,-1.5712,-1.5732,-1.5767,-1.5782,-1.5794,-1.5825,-1.5826,-1.5831,-1.5844,-1.5862,-1.5865,-1.5868,-1.5881,-1.5885,-1.5834,-1.5834,-1.5834,0,-1.5556,-1.559,-1.5602,-1.5626,-1.5641,-1.5647,-1.5671,-1.5685,-1.5714,-1.5724,-1.5719,-1.5765,-1.5779,-1.5813,-1.5821,-1.5831,-1.5838,-1.5829,-1.5864,-1.5867,-1.587,-1.5882,-1.5886,-1.5834,-1.5834,-1.5834,-1.5834,0,-1.5595,-1.5619,-1.5634,-1.5664,-1.5681,-1.5704,-1.572,-1.5735,-1.574,-1.5752,-1.5782,-1.5799,-1.5824,-1.5833,-1.5837,-1.5868,-1.5865,-1.5862,-1.5853,-1.5875,-1.5886,-1.5891,-1.5835,-1.5835,-1.5835,-1.5835,0,0,-1.5614,-1.5653,-1.5659,-1.5673,-1.5701,-1.5719,-1.5744,-1.577,-1.5783,-1.5803,-1.5824,-1.5855,-1.5853,-1.5867,-1.5874,-1.5889,-1.5915,-1.5885,-1.5885,-1.589,-1.5951,-1.5954,-1.5959,-1.5916,-1.5916,-1.5917,-1.595,0,-1.5641,-1.5686,-1.5698,-1.5736,-1.5759,-1.5766,-1.5787,-1.5807,-1.5819,-1.5839,-1.5852,-1.5874,-1.587,-1.5879,-1.5895,-1.5908,-1.5927,-1.5906,-1.5935,-1.5936,-1.593,-1.5964,-1.5967,-1.5997,-1.5954,-1.5955,-1.5955,0,-1.5677,-1.57,-1.5741,-1.5768,-1.5778,-1.5797,-1.5823,-1.5843,-1.5865,-1.5873,-1.589,-1.5896,-1.5922,-1.5912,-1.5947,-1.5933,-1.5946,-1.5954,-1.5956,-1.5959,-1.5947,-1.5969,-1.6006,-1.6011,-1.5962,-1.5962,-1.5961,0,-1.5688,-1.573,-1.576,-1.5772,-1.5804,-1.5818,-1.5832,-1.5854,-1.5869,-1.5892,-1.5902,-1.5926,-1.594,-1.5958,-1.5971,-1.5962,-1.6006,-1.5997,-1.6013,-1.6013,-1.6022,-1.6021,-1.6062,-1.6029,-1.6029,-1.6029,-1.6029,0,-1.5717,-1.5741,-1.5766,-1.5785,-1.5813,-1.5828,-1.5855,-1.5869,-1.5889,-1.591,-1.5917,-1.5937,-1.5952,-1.5974,-1.5983,-1.6013,-1.6018,-1.6025,-1.6027,-1.6025,-1.6024,-1.6033,-1.6032,-1.603,-1.603,-1.603,-1.603,0,-1.5734,-1.5752,-1.5786,-1.5815,-1.5823,-1.5842,-1.5867,-1.5885,-1.5898,-1.5925,-1.5932,-1.5953,-1.5979,-1.5993,-1.6025,-1.6032,-1.6065,-1.6066,-1.6058,-1.6059,-1.6075,-1.6074,-1.6124,-1.6132,-1.6093,-1.6093,-1.6094,0,-1.5751,-1.5771,-1.5803,-1.5819,-1.5834,-1.5858,-1.5875,-1.5891,-1.5908,-1.5936,-1.5951,-1.5979,-1.6001,-1.6043,-1.606,-1.6085,-1.6087,-1.6103,-1.609,-1.6088,-1.6088,-1.6087,-1.609,-1.6105,-1.6105,-1.6105,-1.6106,0,-1.578,-1.5788,-1.5813,-1.5842,-1.5862,-1.5884,-1.5907,-1.5919,-1.5938,-1.5957,-1.5985,-1.6003,-1.6037,-1.6064,-1.6091,-1.6105,-1.6109,-1.611,-1.6115,-1.6113,-1.6108,-1.6112,-1.6064,-1.6108,-1.6108,-1.6108,-1.6108,-1.6107,-1.5798,-1.5817,-1.5843,-1.5871,-1.589,-1.5912,-1.5931,-1.5948,-1.5972,-1.6003,-1.601,-1.604,-1.6064,-1.6101,-1.6115,-1.6139,-1.6135,-1.6143,-1.6145,-1.6147,-1.6148,-1.6104,-1.6143,-1.6143,-1.6143,-1.6143,-1.6143,0,-1.5828,-1.5846,-1.5872,-1.5904,-1.5927,-1.593,-1.5956,-1.5974,-1.6001,-1.6023,-1.6046,-1.6079,-1.6106,-1.6126,-1.6154,-1.6169,-1.6171,-1.6175,-1.6175,-1.6178,-1.6149,-1.6142,-1.6173,-1.6173,-1.6173,-1.6173,-1.6173,-1.6173,-1.5846,-1.5879,-1.5891,-1.5934,-1.5951,-1.5982,-1.5997,-1.6017,-1.6035,-1.6072,-1.6096,-1.6109,-1.6131,-1.6161,-1.6186,-1.6191,-1.6201,-1.6205,-1.6211,-1.6183,-1.618,-1.6177,-1.617,-1.6207,-1.6207,-1.6238,-1.6239,-1.6239]},{"header":{"parameterUnit":"m.s-1","parameterCategory":1,"la1":30.2991,"la2":30.254,"lo1":-89.0895,"lo2":-89.0444,"dy":0.0017,"dx":0.0017,"nx":28,"ny":28,"refTime":"2026-02-15T03:00:00:Z","depth":0,"parameterNumber":3,"parameterNumberName":"V-component_of_WINDS"},"data":[0,0,0,0,0,0,0,0,0,0,0,0,0,0,0,0,0,0,0,0,0,0,0,0,0,0,0,0,0,0,0,0,0,0,0,0,0,0,0,0,0,0,0,0,0,0,0,0,0,0,0,0,0,0,0,0,0,0,-1.0027,-1.0029,0,-1.0188,-1.0189,-1.0191,-1.0263,-1.0263,-1.0262,-1.0262,-1.0427,-1.0432,-1.0436,0,0,0,0,0,0,0,0,0,0,0,0,0,-0.9784,-0.9788,-1.0027,-1.0029,-1.0031,-1.0187,-1.019,-1.0192,-1.0263,-1.0263,-1.0262,-1.0262,-1.0426,-1.0431,-1.0437,0,0,0,0,0,0,0,0,0,0,0,0,0,-0.9912,-0.979,-1.0027,-1.0085,-1.0092,-1.0187,-1.019,-1.0192,-1.0263,-1.0263,-1.0262,-1.0262,-1.0424,-1.0431,-1.0437,-1.0486,0,0,-1.0458,-1.0461,0,0,0,0,0,0,0,0,-0.9904,-0.992,-1.0075,-1.0081,-1.0089,-1.0205,-1.0165,-1.0291,-1.0263,-1.0198,-1.0262,-1.0262,-1.0353,-1.0366,-1.0397,-1.0494,-1.0501,-1.0459,-1.0463,-1.0466,-1.0468,0,0,0,0,0,0,0,-0.9895,-0.9914,-1.0091,-1.0077,-1.0086,-1.0104,-1.0122,-1.0189,-1.0275,-1.0204,-1.0209,-1.0227,-1.0357,-1.039,-1.0401,-1.0503,-1.0459,-1.0465,-1.0469,-1.0472,-1.0652,-1.0653,0,0,0,0,0,0,-0.9877,-0.9906,-1.0085,-1.0095,-0.9994,-1.0109,-1.0129,-1.0168,-1.0275,-1.0291,-1.0227,-1.023,-1.0379,-1.0393,-1.0407,-1.0474,-1.0466,-1.0472,-1.0476,-1.0651,-1.0652,-1.0653,0,0,0,0,0,0,-0.9871,-0.9892,-1.0079,-1.0002,-1.0028,-1.0113,-1.0157,-1.0171,-1.0204,-1.0293,-1.0309,-1.0245,-1.0379,-1.0398,-1.0467,-1.0481,-1.0476,-1.0482,-1.0651,-1.0652,-1.0652,-1.0606,0,0,0,0,0,0,-0.9864,-0.989,-0.9908,-1.0002,-1.0031,-1.0135,-1.0158,-1.0175,-1.0216,-1.0221,-1.0313,-1.0328,-1.038,-1.0456,-1.0474,-1.049,-1.0487,-1.065,-1.0651,-1.0652,-1.0607,-1.0606,-1.0604,0,0,0,0,0,-0.9855,-0.9888,-0.9909,-0.993,-1.0056,-1.0135,-1.0152,-1.0211,-1.0216,-1.0237,-1.0294,-1.0326,-1.0476,-1.0463,-1.0483,-1.0502,-1.0649,-1.0651,-1.0652,-1.0607,-1.0606,-1.0604,0,0,0,0,0,0,-0.9793,-0.9901,-0.9925,-0.999,-1.0053,-1.0147,-1.0174,-1.0206,-1.0269,-1.0271,-1.0341,-1.0362,-1.0425,-1.047,-1.0453,-1.0556,-1.0566,-1.0571,-1.0525,-1.0524,-1.0523,-1.0511,-1.0493,0,0,0,0,0,-0.9786,-0.9841,-0.9933,-0.9981,-1.0011,-1.0087,-1.0124,-1.0164,-1.0232,-1.0259,-1.0321,-1.0387,-1.0449,-1.0489,-1.0551,-1.0613,-1.0636,-1.0637,-1.0635,-1.0634,-1.0638,-1.0678,-1.068,-1.0658,-1.0658,-1.0658,0,0,-0.9774,-0.984,-0.987,-0.997,-1.0024,-1.008,-1.0109,-1.0166,-1.0209,-1.0268,-1.0338,-1.0385,-1.0463,-1.053,-1.0563,-1.057,-1.065,-1.0636,-1.0634,-1.064,-1.068,-1.0682,-1.0684,-1.0659,-1.0659,-1.0658,0,0,-0.9781,-0.9835,-0.9883,-0.9936,-1.0017,-1.0068,-1.0079,-1.017,-1.0204,-1.0275,-1.0321,-1.0373,-1.0478,-1.0533,-1.0575,-1.0605,-1.0637,-1.0623,-1.0617,-1.0655,-1.0657,-1.0659,-1.0672,-1.0676,-1.0627,-1.0627,-1.0627,0,-0.9755,-0.9841,-0.9903,-0.9959,-1.0003,-1.0059,-1.0109,-1.0157,-1.0254,-1.0284,-1.029,-1.0426,-1.0482,-1.0564,-1.0572,-1.0602,-1.0619,-1.0613,-1.0651,-1.0654,-1.0657,-1.067,-1.0675,-1.0625,-1.0625,-1.0625,-1.0625,0,-0.9807,-0.9866,-0.9895,-0.9988,-1.0035,-1.0088,-1.0159,-1.0199,-1.0235,-1.0286,-1.0359,-1.0429,-1.0507,-1.0529,-1.0565,-1.0617,-1.062,-1.0637,-1.0649,-1.0656,-1.067,-1.0675,-1.0622,-1.0623,-1.0623,-1.0624,0,0,-0.9778,-0.9907,-0.9916,-0.9961,-1.0056,-1.0104,-1.0159,-1.0237,-1.0271,-1.0337,-1.0387,-1.0476,-1.0495,-1.0542,-1.0584,-1.0617,-1.064,-1.0631,-1.0634,-1.0633,-1.0706,-1.0693,-1.0698,-1.0661,-1.0663,-1.0664,-1.07,0,-0.9799,-0.9902,-0.996,-1.004,-1.0097,-1.0152,-1.0201,-1.0265,-1.0315,-1.0371,-1.0425,-1.0488,-1.0506,-1.0535,-1.057,-1.0629,-1.0656,-1.0627,-1.0711,-1.0713,-1.0691,-1.0705,-1.0691,-1.0722,-1.0706,-1.0707,-1.0707,0,-0.9837,-0.9903,-0.9988,-1.008,-1.0106,-1.0149,-1.0227,-1.0279,-1.0354,-1.0388,-1.0442,-1.0484,-1.0547,-1.0553,-1.0642,-1.0621,-1.0659,-1.0693,-1.0696,-1.0707,-1.0711,-1.0719,-1.0733,-1.0738,-1.0716,-1.0715,-1.0715,0,-0.981,-0.992,-0.9987,-1.0023,-1.013,-1.016,-1.0206,-1.0281,-1.0325,-1.0393,-1.0422,-1.0496,-1.0537,-1.0594,-1.0656,-1.0653,-1.074,-1.075,-1.0772,-1.077,-1.0788,-1.0787,-1.0811,-1.0809,-1.0809,-1.0809,-1.0808,0,-0.9829,-0.9879,-0.9977,-1.0017,-1.0076,-1.0144,-1.0201,-1.0252,-1.0318,-1.0371,-1.0423,-1.0471,-1.0549,-1.0608,-1.0657,-1.0725,-1.0743,-1.0773,-1.0786,-1.077,-1.0766,-1.0796,-1.0797,-1.081,-1.081,-1.0809,-1.0809,0,-0.9809,-0.9876,-0.9952,-1.0049,-1.0074,-1.0114,-1.0197,-1.024,-1.0292,-1.0359,-1.0378,-1.0461,-1.0533,-1.06,-1.0696,-1.0729,-1.0799,-1.0814,-1.0773,-1.0781,-1.08,-1.0798,-1.0846,-1.0857,-1.0845,-1.0845,-1.0845,0,-0.9817,-0.9858,-0.996,-0.9999,-1.0045,-1.0107,-1.0153,-1.0221,-1.0267,-1.0357,-1.039,-1.0466,-1.053,-1.0643,-1.0712,-1.0787,-1.0806,-1.0817,-1.0817,-1.0801,-1.0809,-1.0806,-1.0812,-1.0816,-1.0816,-1.0816,-1.0816,0,-0.9826,-0.9858,-0.9921,-0.9998,-1.0051,-1.0115,-1.018,-1.0209,-1.0291,-1.0339,-1.0414,-1.0465,-1.0564,-1.064,-1.0722,-1.0771,-1.0808,-1.0815,-1.0825,-1.081,-1.0786,-1.0802,-1.0773,-1.0814,-1.0814,-1.0815,-1.0815,-1.0815,-0.9822,-0.9862,-0.9941,-1.0011,-1.0068,-1.0128,-1.0174,-1.0233,-1.0297,-1.0383,-1.042,-1.0496,-1.0574,-1.0689,-1.0737,-1.0799,-1.0807,-1.082,-1.0824,-1.0827,-1.0825,-1.0774,-1.0814,-1.0814,-1.0814,-1.0815,-1.0815,0,-0.9835,-0.9889,-0.9953,-1.0044,-1.01,-1.013,-1.0204,-1.0249,-1.0316,-1.0385,-1.0448,-1.0536,-1.0611,-1.0686,-1.0765,-1.08,-1.0819,-1.0819,-1.0818,-1.0829,-1.0812,-1.0797,-1.0803,-1.0803,-1.0802,-1.0802,-1.0802,-1.0802,-0.9849,-0.9919,-0.996,-1.006,-1.0114,-1.019,-1.0231,-1.0287,-1.0343,-1.0439,-1.0501,-1.055,-1.0623,-1.0708,-1.0779,-1.0799,-1.0827,-1.0822,-1.0848,-1.083,-1.083,-1.0831,-1.0817,-1.0827,-1.0827,-1.0861,-1.0861,-1.0861]}]]